This is the latest recevied weather packets stored in our database for station/object W5HKR. If no packets are shown the sender has not sent any weather packets the latest 10 day(s).
| Time | Temp. | Humidity | Pressure | Rain* | Wind** | Luminosity | Snow |
|---|---|---|---|---|---|---|---|
| 1787376555 | 27.78° C | 63% | 988.8 hPa | 0 mm | - | - | - |
| 1787375474 | 28.33° C | 61% | 988.9 hPa | 0 mm | - | - | - |
| 1787375445 | 28.33° C | 61% | 989.1 hPa | 0 mm | - | - | - |
| 1787375145 | 28.33° C | 61% | 988.8 hPa | 0 mm | - | - | - |
| 1787374395 | 28.89° C | 61% | 988.8 hPa | 0 mm | - | - | - |
| 1787373944 | 28.89° C | 61% | 989.1 hPa | 0 mm | - | - | - |
| 1787373316 | 28.89° C | 60% | 988.2 hPa | 0 mm | - | - | - |
| 1787372235 | 29.44° C | 56% | 988.5 hPa | 0 mm | - | - | - |
| 1787372144 | 30° C | 56% | 988.5 hPa | 0 mm | - | - | - |
| 1787371156 | 30° C | 54% | 988.2 hPa | 0 mm | - | - | - |
| 1787370945 | 30° C | 54% | 988.1 hPa | 0 mm | - | - | - |
| 1787370344 | 30.56° C | 54% | 988.1 hPa | 0 mm | - | - | - |
| 1787370074 | 30.56° C | 53% | 987.8 hPa | 0 mm | - | - | - |
| 1787369745 | 30.56° C | 53% | 988.2 hPa | 0 mm | - | - | - |
| 1787369446 | 30.56° C | 52% | 987.8 hPa | 0 mm | - | - | - |
| 1787369144 | 31.11° C | 52% | 988.1 hPa | 0 mm | - | - | - |
| 1787368994 | 31.11° C | 52% | 988 hPa | 0 mm | - | - | - |
| 1787367915 | 31.11° C | 53% | 987.5 hPa | 0 mm | - | - | - |
| 1787367645 | 31.67° C | 53% | 987.9 hPa | 0 mm | - | - | - |
| 1787366834 | 31.67° C | 52% | 987.6 hPa | 0 mm | - | - | - |
| 1787366746 | 31.67° C | 52% | 987.4 hPa | 0 mm | - | - | - |
| 1787365754 | 32.22° C | 51% | 987.5 hPa | 0 mm | - | - | - |
| 1787364675 | 32.78° C | 52% | 986.8 hPa | 0 mm | - | - | - |
| 1787363595 | 32.78° C | 49% | 986.8 hPa | 0 mm | - | - | - |
| 1787362515 | 32.78° C | 47% | 986.6 hPa | 0 mm | - | - | - |
* Rain latest hour (hover to see other rain measurements)
** Current wind speed in m/s (hover to see current wind gust speed)